Miscellaneous Local Product
Issued by NWS North Platte, NE

Home | Current Version | Previous Version | Text Only | Print | Product List | Glossary On
Versions: 1 2 3 4 5 6 7 8 9 10 11 12 13 14 15 16 17 18 19 20 21 22 23 24 25 26 27 28 29 30 31 32 33 34 35 36 37 38 39 40 41 42 43 44 45 46 47 48 49 50
000
AXUS43 KLBF 030810
MISLBF


WESTERN AND NORTH CENTRAL NEBRASKA HOURLY WEATHER ROUNDUP
NATIONAL WEATHER SERVICE NORTH PLATTE NE
300 AM CDT FRI APR 03 2020

NOTE: "FAIR" INDICATES FEW OR NO CLOUDS BELOW 12,000 FEET WITH NO
SIGNIFICANT WEATHER AND/OR OBSTRUCTIONS TO VISIBILITY.

NOTE: STATIONS NOT REPORTING SKY/WEATHER AND PRESSURE ARE
PROVIDED BY RAWS AND APRS NETWORKS AND ARE NOT UNDER NATIONAL
WEATHER SERVICE QUALITY CONTROL.

...OBSERVATIONS IN AND NEAR THE EASTERN PANHANDLE OF NEBRASKA...

CITY           SKY/WX    TMP DP  RH WIND       PRES   REMARKS
PINE RIDGE     CLOUDY    13   7  77 NW3       30.23F
GORDON         FLURRIES  13   8  80 NW7       30.21R WCI   2
CHADRON        FAIR      -1  -5  82 SW8       30.24F WCI -15
ALLIANCE       FAIR      -4  -8  83 W8        30.19S WCI -19
SIDNEY         FAIR       9   4  80 NW13      30.17S WCI  -7
CRESCENT LAKE    N/A      7   4  87 NW6         N/A  WCI  -3
$$

...OBSERVATIONS IN NORTHERN NEBRASKA AND FAR SOUTHERN SOUTH DAKOTA...

CITY           SKY/WX    TMP DP  RH WIND       PRES   REMARKS
WINNER         FLURRIES  16   9  74 NW15      30.25F WCI   1
VALENTINE      FAIR      15   7  70 NW10      30.24F WCI   2
AINSWORTH      FAIR      14   9  81 NW13      30.23S WCI   0
O`NEILL        CLOUDY    18  13  80 NW15      30.21F WCI   4
THEDFORD       FAIR      14  10  81 NW10      30.22R WCI   2
BROKEN BOW     MIX PCPN  18  14  84 N16       30.19F WCI   3
ORD            CLOUDY    18  12  77 N20G30    30.20F WCI   2
ALBION         LGT SNOW  19  17  88 N14G21    30.19F VSB 1   WCI   6
EWING            N/A     18  15  87 N12         N/A  WCI   6
CHAMBERS         N/A     17  13  84 NW3G14      N/A
BUTTE            N/A     16  13  88 NW12        N/A  WCI   3
SPRINGVIEW       N/A     14   9  79 NW7G15      N/A  WCI   4
HALSEY           N/A     13   8  79 NW7G20      N/A  WCI   3
$$

...OBSERVATIONS IN SOUTHWEST NEBRASKA AND FAR NORTHEAST COLORADO...

CITY           SKY/WX    TMP DP  RH WIND       PRES   REMARKS
WRAY           CLOUDY    21  10  63 NW18      30.22R WCI   6
HOLYOKE        FAIR      19  12  73 N15       30.21R WCI   5
IMPERIAL       CLOUDY    18  11  74 N20G26    30.21F WCI   2
OGALLALA       MOCLDY    18  11  76 N12       30.23S WCI   5
NORTH PLATTE   CLOUDY    19  10  68 N20G26    30.22R WCI   3
MCCOOK         MOCLDY    22  12  65 NW20G29   30.22S WCI   7
LEXINGTON      MOCLDY    20  15  81 N18       30.20F WCI   4
CALLAWAY         N/A     18  15  87 W7          N/A  WCI   9
STAPLETON        N/A     13  10  85 CALM        N/A
$$

...OBSERVATIONS IN CENTRAL LINCOLN COUNTY AREA...

CITY           SKY/WX    TMP DP  RH WIND       PRES   REMARKS
N.P. AIRPORT   CLOUDY    19  10  68 N20G26    30.22R WCI   3
N.P. HILLCREST   N/A     16  12  82 NW13G20     N/A  WCI   2
N.P. DOWNTOWN    N/A     16  11  79 NW8G16      N/A  WCI   5
N.P. SOUTHEAST   N/A     16  10  77 N8G15       N/A  WCI   5
$$

...OBSERVATIONS ACROSS THE ROCKIES AND WESTERN HIGH PLAINS...

CITY           SKY/WX    TMP DP  RH WIND       PRES   REMARKS
SCOTTSBLUFF    FAIR       8   4  83 NW5       30.22S WCI   0
KIMBALL        FAIR       3  -2  82 NW7       30.17R WCI -10
CHEYENNE       CLOUDY    12   6  77 CALM      30.08S
DENVER         CLOUDY    16  12  84 E5        30.14S WCI   9
STEAMBOAT      CLOUDY    21  20  95 CALM      30.07S
COPPER MTN     LGT SNOW  14  10  85 SW6       29.94F WCI   5
LEADVILLE      FAIR      16   9  74 NE9       29.94F WCI   4
ASPEN          CLOUDY    24  20  84 CALM      30.01S
GUNNISON       CLOUDY    29  19  66 SW5       29.99S
TELLURIDE      CLOUDY    27  12  54 W3        30.03S
LARAMIE        FAIR       6   1  80 NE5       30.03S WCI  -3
CASPER         FAIR       1  -4  79 W7        30.12F WCI -12
SHERIDAN       FAIR       2  -5  72 NW5       30.16S WCI  -8
JACKSON        FAIR       9   2  73 N9        30.08R WCI  -4
YELLOWSTONE      N/A     -9 -13  83 CALM      30.03S
$$

...OBSERVATIONS ACROSS THE NORTHERN PLAINS...

CITY           SKY/WX    TMP DP  RH WIND       PRES   REMARKS
RAPID CITY     FAIR       8   3  80 N13       30.23R WCI  -8
PIERRE         MOCLDY    15  10  80 NW15      30.26S WCI   0
SIOUX FALLS    FLURRIES  21  16  81 NW20G32   30.13F WCI   6
ABERDEEN       CLOUDY    19  12  74 NW17      30.19F WCI   4
DICKINSON      CLOUDY    12   4  70 NW10      30.22R WCI  -1
BISMARCK       LGT SNOW  17  12  80 NW13      30.25F WCI   4
FARGO          CLOUDY    18  14  84 NW18      30.12F WCI   2
$$

...OBSERVATIONS ACROSS THE CENTRAL AND SOUTHERN PLAINS...

CITY           SKY/WX    TMP DP  RH WIND       PRES   REMARKS
GRAND ISLAND   CLOUDY    21  14  74 N25G37    30.16F WCI   4
LINCOLN        CLOUDY    25  20  81 NW16      30.18R WCI  12
OMAHA          FRZ DRZL  26  23  88 NW21G30   30.13R FOG     WCI  12
DES MOINES     CLOUDY    37  34  89 NW15G26   30.01R
KANSAS CITY    CLOUDY    36  30  79 NW14G25   30.02R
WICHITA        CLOUDY    29  25  85 N23G36    30.08R FOG     WCI  15
DODGE CITY     CLOUDY    26  18  71 N26G38    30.12S WCI  10
OKLAHOMA CITY  LGT RAIN  36  35  96 N22       30.00R FOG
DALLAS         CLOUDY    66  61  84 SE12      29.88F
AMARILLO       CLOUDY    29  27  92 N24G31    30.04S FOG     WCI  15
$$



USA.gov is the U.S. government's official web portal to all federal, state and local government web resources and services.
  • National Weather Service
  • WSO Pago Pago Weather Service Office
  • Pago Pago, AS
  • (684) 699-9130
  • Page Author: PPG Webmaster
  • Incorrect Region Format!
  • Web Master's E-mail:
  • Page last modified: Mar 10th, 2020 21:02 UTC